Location: Caltech
(34.1382°N, 118.1253°W)
Time: 12:22:49
(UTC-08:00)

Tiros 1 despin weight - Visible Passes

Search period start: 04 December 2016 00:00
Search period end: 14 December 2016 00:00
Orbit: 595 x 645 km, 48.2° (Epoch: 04 December)

Date Brightness Start Highest point End Pass type
(mag) Time Alt. Az. Time Alt. Az. Time Alt. Az.
04 Dec ? 04:10:13 38° ESE 04:10:13 38° ESE 04:13:11 10° ESE visible
04 Dec ? 05:47:20 13° W 05:49:44 19° SW 05:53:02 10° S visible
05 Dec ? 04:27:05 40° SSE 04:27:05 40° SSE 04:30:14 10° SE visible
06 Dec ? 04:44:01 24° SSW 04:44:01 24° SSW 04:46:35 10° SSE visible
07 Dec ? 05:01:00 11° SSW 05:01:00 11° SSW 05:01:36 10° SSW visible
07 Dec ? 18:59:57 10° SSW 19:01:13 17° S 19:01:13 17° S visible
08 Dec ? 19:16:26 10° SW 19:18:09 23° SW 19:18:09 23° SW visible
09 Dec ? 17:53:25 10° S 17:56:44 21° SE 17:57:54 19° ESE visible
09 Dec ? 19:33:36 10° WSW 19:35:01 20° WSW 19:35:01 20° WSW visible
10 Dec ? 18:09:25 10° SSW 18:13:38 45° SE 18:14:42 37° E visible
10 Dec ? 19:51:16 10° W 19:51:50 13° W 19:51:50 13° W visible
11 Dec ? 18:26:14 10° SW 18:30:41 85° NW 18:31:27 61° NE visible
12 Dec ? 18:43:38 10° WSW 18:47:53 44° NNW 18:48:07 43° NNW visible
13 Dec ? 17:19:02 10° SW 17:23:24 65° SE 17:27:37 11° ENE visible
13 Dec ? 19:01:29 10° W 19:04:44 26° NW 19:04:44 26° NW visible
